IRIDIUM 33 DEB, 34145

Orbit data source: Space-Track

IRIDIUM 33 DEB, 34145 is space debris in LEO originally from a launch on Sun, 14 Sep 1997 UTC launched from the Tyuratam Missile And Space Complex (TTMTR). The debris from Iridium 33, an American commercial communications satellite, has been tracked extensively since its accidental collision with the defunct Russian satellite Cosmos 2251 in 2009. This event, occurring at high speed in low Earth orbit (LEO), generated thousands of pieces of space debris, significantly increasing the risk of further collisions. The Iridium 33 debris cloud has impacted space traffic management and orbital debris mitigation strategies, making it a subject of ongoing study in space situational awareness.

Loading next visibility...
Identifier
34145, 1997-051DY
Orbit
LEO
Country
Flag of USUS
Related business
Manufacturer
Unknown
Mission
Spacecraft
Bus & Motor
Unknown
Mass
Unknown
Launch date (UTC)
1997-09-14 (28 years ago)
Launch vehicle
Unknown
Launch site
Tyuratam Missile And Space Complex (TTMTR)
Object type
Payload
Rocket body
Debris
Shape & HBR
Unknown shape, 0.1 m
Radar Cross Section
Small (<0.1 m²)

Expand to show TLE details & history
Last TLE update: 6 hours ago

TLE from 6 hours ago
0 IRIDIUM 33 DEB
1 34145U 97051DY  25349.93904301  .00002770  00000-0  81791-3 0  9996
2 34145  86.2114 331.1023 0055778  83.6538 277.1011 14.42312894876849
Epoch: 2025-12-15T22:32Z
TLE epoch observation values (Epoch: 2025-12-15T22:32:13.316Z)
Latitude
0.00005°
Longitude
-91.7836°
Altitude
749.229 km
Speed
7.482 km/s
True Right ascension
22h 04m 24s
True Declination
0° 00' 00"
Sunlit
Object was in daylight at epoch
Visualization orbit readout
Latitude
Unknown
Longitude
Unknown
Altitude
Unknown
Speed
Unknown
Apparent Right ascension
Unknown
Apparent Declination
Unknown
Sunlit
N/A
Visualization observer readout
Local Sidereal Time
03:26:43
Azimuth
Unknown
Elevation
Unknown
Doppler factor
Unknown
Orbital elements
Apogee altitude
787.571 km
Perigee altitude
708.076 km
Semi-major axis
7,125.961 km
Eccentricity
0.00558
Inclination
86.2114°
RAAN
331.1023°
Arg. of periapsis
83.6538°
True anomaly
276.4663°
Mean anomaly
277.1011°
Eccentric anomaly
276.78375°
Mean motion
3.6081 °/min
Orbital period
99.78 mins
BSTAR
0.00081791

Documentation

Showing up to 5 results
|